sat.trackr.live / text

‹ back to catalog

STARLINK-34912

NORAD 65378 · 2025-190AD

PAYLOAD ACTIVE UNKNOWN

§ Identity

Operator
Country
US
Launch date
2025-08-28
Launch site
AFETR
Launch vehicle
Mass (kg)
RCS (m²)

Purposes: comms

External: N2YO · Heavens-Above · Gunter

§ Orbital elements

Epoch: 2026-05-25T01:39:43.084224Z

Period
94.10 min
Inclination
53.1592°
Eccentricity
0.0001125
Mean motion
15.30210173 rev/d
Perigee alt
474.4 km
Apogee alt
476.0 km
Semi-major
6,853.3 km
B*
7.5187e-4
RAAN
173.0815°
Arg perigee
77.9739°
Mean anomaly
282.1388°
Rev number
4,145

§ Raw data

STARLINK-349121 65378U 25190AD  26145.06924866  .00021982  00000+0  75187-3 0  99972 65378  53.1592 173.0815 0001125  77.9739 282.1388 15.30210173 41451

JSON: /api/v1/satellites/65378 · /tle

For live sub-satellite position, see the globe view (requires WebGL).

§ Visibility from observer

Set your observer location to see the next 7 days of passes ≥ 10°. The values pass through the URL so the page stays shareable.

No JS? Fill the form by hand. The geolocation button needs JavaScript.